Yeovilton, United Kingdom

1:06 PM BST on June 22, 2017 (GMT +0100)
Yeovil Radar Navy

Weather History for EGDY - April, 2013

Change the Weather History Date:

Friday, April 12, 2013

  Actual Average Record
Temperature  
Mean Temperature 49 °F -  
Max Temperature 56 °F 56 °F 64 °F (2007)
Min Temperature 42 °F 40 °F 26 °F (1998)
Degree Days  
Heating Degree Days 16    
Moisture  
Dew Point 41 °F    
Average Humidity 77    
Maximum Humidity 93    
Minimum Humidity 45    
Precipitation  
Precipitation 0.01 in - - ()
Sea Level Pressure  
Sea Level Pressure 29.47 in    
Wind  
Wind Speed 10 mph ()    
Max Wind Speed 22 mph    
Max Gust Speed -    
Visibility 6.6 miles    
Events Rain    
Averages and records for this station are not official NWS values.
T = Trace of Precipitation, MM = Missing Value Source: Averaged Metar Reports

Daily Weather History Graph

Daily Weather History Graph

Search for Another Location

Airport or City:

Trip Planner

Search our weather history database for the weather conditions in past years. The results will help you decide how hot, cold, wet, or windy it might be!

Date:

Astronomy

Apr. 12, 2013 Rise Set
Actual Time 6:22 AM BST 8:01 PM BST
Civil Twilight 5:47 AM BST 8:36 PM BST
Nautical Twilight 5:04 AM BST 9:19 PM BST
Astronomical Twilight 4:18 AM BST 10:06 PM BST
Moon 7:09 AM BST (4/12) 10:35 PM BST (4/12)
Length of Visible Light 14h 48m
Length of Day
13h 39m
Waxing Crescent, 4% of the Moon is Illuminated
Apr 12
Waxing Crescent
Apr 18
First Quarter
Apr 25
Full
May 2
Last Quarter
May 10
New

Hourly Weather History & Observations

Time (BST) Temp. Windchill Dew Point Humidity Pressure Visibility Wind Dir Wind Speed Gust Speed Precip Events Conditions
12:50 AM 48.2 °F - 44.6 °F 87% 29.36 in 5.6 mi SSE 10.4 mph - N/A Rain Rain Showers
1:50 AM 48.2 °F - 44.6 °F 87% 29.33 in 6.2 mi South 16.1 mph - N/A Rain Light Rain
2:50 AM 46.4 °F 40.1 °F 42.8 °F 87% 29.30 in 6.2 mi SSE 15.0 mph - N/A Rain Light Rain
3:50 AM 46 °F - 44 °F 92% 29.27 in 12 mi SE 6.9 mph - - Rain Rain
3:50 AM 46.4 °F 42.9 °F 44.6 °F 93% 29.27 in 6.2 mi SE 6.9 mph - N/A   Scattered Clouds
4:50 AM 46.4 °F 42.9 °F 44.6 °F 93% 29.24 in 6.2 mi South 6.9 mph - N/A Rain Light Rain
5:50 AM 46.4 °F 43.5 °F 44.6 °F 93% 29.24 in 6.2 mi SSW 5.8 mph - N/A   Mostly Cloudy
6:50 AM 46 °F - 45 °F 93% 29.27 in 5 mi SW 4.6 mph - - Rain Light Rain Showers
6:50 AM 46.4 °F 44.3 °F 44.6 °F 93% 29.27 in 5.0 mi SW 4.6 mph - N/A   Scattered Clouds
7:50 AM 46.4 °F 41.5 °F 42.8 °F 87% 29.30 in 6.2 mi West 10.4 mph - N/A   Mostly Cloudy
8:50 AM 48.2 °F - 42.8 °F 82% 29.33 in 6.2 mi WSW 11.5 mph - N/A   Mostly Cloudy
9:38 AM 48.2 °F - 44.6 °F 87% 29.36 in 6.2 mi West 9.2 mph - N/A   Mostly Cloudy
9:50 AM 47 °F - 43 °F 82% 29.37 in 9 mi West 15.0 mph - -   Mostly Cloudy
9:50 AM 48.2 °F - 42.8 °F 82% 29.36 in 6.2 mi West 15.0 mph - N/A   Mostly Cloudy
10:50 AM 48.2 °F - 42.8 °F 82% 29.39 in 6.2 mi West 19.6 mph - N/A Rain Light Rain Showers
11:50 AM 48.2 °F - 42.8 °F 82% 29.42 in 3.1 mi West 12.7 mph - N/A Rain Light Rain Showers
12:50 PM 50 °F - 43 °F 68% 29.48 in 31 mi WNW 21.9 mph - - Rain Rain
12:50 PM 50.0 °F - 42.8 °F 76% 29.47 in 6.2 mi WNW 21.9 mph - N/A   Mostly Cloudy
1:50 PM 51.8 °F - 41.0 °F 67% 29.50 in 6.2 mi WNW 21.9 mph - N/A   Mostly Cloudy
2:50 PM 55.4 °F - 42.8 °F 63% 29.53 in 6.2 mi West 18.4 mph - N/A   Mostly Cloudy
3:50 PM 52 °F - 41 °F 57% 29.57 in 16 mi West 13.8 mph - -   Mostly Cloudy
3:50 PM 51.8 °F - 41.0 °F 67% 29.56 in 6.2 mi West 13.8 mph - N/A   Scattered Clouds
4:50 PM 53.6 °F - 37.4 °F 54% 29.59 in 6.2 mi West 19.6 mph - N/A   Mostly Cloudy
5:50 PM 53.6 °F - 33.8 °F 47% 29.62 in 6.2 mi West 20.7 mph - N/A   Partly Cloudy
6:50 PM 51 °F - 36 °F 45% 29.66 in 28 mi WNW 12.7 mph - -   Scattered Clouds
6:50 PM 50.0 °F - 35.6 °F 58% 29.65 in 6.2 mi WNW 12.7 mph - N/A   Partly Cloudy
7:50 PM 48.2 °F - 35.6 °F 62% 29.68 in 6.2 mi WNW 3.5 mph - N/A   Mostly Cloudy
8:50 PM 44.6 °F 40.2 °F 37.4 °F 76% 29.71 in 6.2 mi West 8.1 mph - N/A   Partly Cloudy
9:50 PM 44 °F - 37 °F 69% 29.75 in 22 mi WSW 5.8 mph - -   Mostly Cloudy
9:50 PM 44.6 °F 41.4 °F 37.4 °F 76% 29.74 in 6.2 mi WSW 5.8 mph - N/A   Mostly Cloudy
10:50 PM 42.8 °F 40.1 °F 37.4 °F 81% 29.74 in 6.2 mi SW 4.6 mph - N/A   Overcast
11:50 PM 42.8 °F - 37.4 °F 81% 29.77 in 6.2 mi NW 1.2 mph - N/A   Scattered Clouds